#datetime,building,power
2022-06-26T00:00:00,mfh,13.17
2022-06-26T00:01:00,mfh,13.64
2022-06-26T00:02:00,mfh,13.23
2022-06-26T00:03:00,mfh,13.86
2022-06-26T00:04:00,mfh,13.87
2022-06-26T00:05:00,mfh,13.95
2022-06-26T00:06:00,mfh,14.02
2022-06-26T00:07:00,mfh,13.27
2022-06-26T00:08:00,mfh,13.27
2022-06-26T00:09:00,mfh,13.28
2022-06-26T00:10:00,mfh,13.52
2022-06-26T00:11:00,mfh,14.15
2022-06-26T00:12:00,mfh,14.29
2022-06-26T00:13:00,mfh,14.26
2022-06-26T00:14:00,mfh,14.27
2022-06-26T00:15:00,mfh,13.58
2022-06-26T00:16:00,mfh,13.58
2022-06-26T00:17:00,mfh,13.55
2022-06-26T00:18:00,mfh,13.62
2022-06-26T00:19:00,mfh,15.12
2022-06-26T00:20:00,mfh,14.06
2022-06-26T00:21:00,mfh,14.01
2022-06-26T00:22:00,mfh,14.12
2022-06-26T00:23:00,mfh,13.58
2022-06-26T00:24:00,mfh,13.58
2022-06-26T00:25:00,mfh,14.53
2022-06-26T00:26:00,mfh,13.54
2022-06-26T00:27:00,mfh,14.18
2022-06-26T00:28:00,mfh,14.24
2022-06-26T00:29:00,mfh,14.28
2022-06-26T00:30:00,mfh,14.38
2022-06-26T00:31:00,mfh,13.90
2022-06-26T00:32:00,mfh,13.90
2022-06-26T00:33:00,mfh,13.80
2022-06-26T00:34:00,mfh,14.00
2022-06-26T00:35:00,mfh,13.98
2022-06-26T00:36:00,mfh,14.63
2022-06-26T00:37:00,mfh,14.52
2022-06-26T00:38:00,mfh,14.40
2022-06-26T00:39:00,mfh,13.69
2022-06-26T00:40:00,mfh,13.69
2022-06-26T00:41:00,mfh,13.61
2022-06-26T00:42:00,mfh,13.60
2022-06-26T00:43:00,mfh,14.47
2022-06-26T00:44:00,mfh,13.94
2022-06-26T00:45:00,mfh,13.96
2022-06-26T00:46:00,mfh,13.98
2022-06-26T00:47:00,mfh,13.38
2022-06-26T00:48:00,mfh,14.35
2022-06-26T00:49:00,mfh,13.48
2022-06-26T00:50:00,mfh,13.37
2022-06-26T00:51:00,mfh,13.37
2022-06-26T00:52:00,mfh,13.95
2022-06-26T00:53:00,mfh,13.88
2022-06-26T00:54:00,mfh,13.93
2022-06-26T00:55:00,mfh,13.23
2022-06-26T00:56:00,mfh,13.21
2022-06-26T00:57:00,mfh,13.17
2022-06-26T00:58:00,mfh,13.41
2022-06-26T00:59:00,mfh,13.42
2022-06-26T01:00:00,mfh,14.04
2022-06-26T01:01:00,mfh,14.19
2022-06-26T01:02:00,mfh,14.55
2022-06-26T01:03:00,mfh,14.13
2022-06-26T01:04:00,mfh,13.47
2022-06-26T01:05:00,mfh,13.46
2022-06-26T01:06:00,mfh,13.39
2022-06-26T01:07:00,mfh,13.75
2022-06-26T01:08:00,mfh,13.78
2022-06-26T01:09:00,mfh,13.69
2022-06-26T01:10:00,mfh,13.68
2022-06-26T01:11:00,mfh,13.86
2022-06-26T01:12:00,mfh,13.18
2022-06-26T01:13:00,mfh,13.15
2022-06-26T01:14:00,mfh,13.08
2022-06-26T01:15:00,mfh,13.17
2022-06-26T01:16:00,mfh,13.75
2022-06-26T01:17:00,mfh,13.88
2022-06-26T01:18:00,mfh,13.88
2022-06-26T01:19:00,mfh,14.77
2022-06-26T01:20:00,mfh,13.19
2022-06-26T01:21:00,mfh,13.44
2022-06-26T01:22:00,mfh,14.16
2022-06-26T01:23:00,mfh,14.23
2022-06-26T01:24:00,mfh,14.93
2022-06-26T01:25:00,mfh,14.90
2022-06-26T01:26:00,mfh,13.99
2022-06-26T01:27:00,mfh,13.99
2022-06-26T01:28:00,mfh,13.29
2022-06-26T01:29:00,mfh,13.37
2022-06-26T01:30:00,mfh,13.37
2022-06-26T01:31:00,mfh,13.66
2022-06-26T01:32:00,mfh,13.96
2022-06-26T01:33:00,mfh,14.40
2022-06-26T01:34:00,mfh,14.03
2022-06-26T01:35:00,mfh,14.14
2022-06-26T01:36:00,mfh,13.42
2022-06-26T01:37:00,mfh,14.33
2022-06-26T01:38:00,mfh,13.37
2022-06-26T01:39:00,mfh,13.30
2022-06-26T01:40:00,mfh,13.92
2022-06-26T01:41:00,mfh,14.02
2022-06-26T01:42:00,mfh,14.04
2022-06-26T01:43:00,mfh,14.07
2022-06-26T01:44:00,mfh,13.39
2022-06-26T01:45:00,mfh,13.50
2022-06-26T01:46:00,mfh,13.56
2022-06-26T01:47:00,mfh,13.62
2022-06-26T01:48:00,mfh,14.14
2022-06-26T01:49:00,mfh,14.95
2022-06-26T01:50:00,mfh,14.10
2022-06-26T01:51:00,mfh,14.12
2022-06-26T01:52:00,mfh,13.45
2022-06-26T01:53:00,mfh,13.38
2022-06-26T01:54:00,mfh,13.19
2022-06-26T01:55:00,mfh,13.19
2022-06-26T01:56:00,mfh,14.25
2022-06-26T01:57:00,mfh,14.30
2022-06-26T01:58:00,mfh,14.49
2022-06-26T01:59:00,mfh,14.59
2022-06-26T02:00:00,mfh,13.84
2022-06-26T02:01:00,mfh,14.71
2022-06-26T02:02:00,mfh,13.87
2022-06-26T02:03:00,mfh,13.84
2022-06-26T02:04:00,mfh,14.36
2022-06-26T02:05:00,mfh,14.37
2022-06-26T02:06:00,mfh,14.49
2022-06-26T02:07:00,mfh,14.49
2022-06-26T02:08:00,mfh,14.56
2022-06-26T02:09:00,mfh,14.11
2022-06-26T02:10:00,mfh,14.63
2022-06-26T02:11:00,mfh,14.17
2022-06-26T02:12:00,mfh,14.53
2022-06-26T02:13:00,mfh,14.75
2022-06-26T02:14:00,mfh,14.68
2022-06-26T02:15:00,mfh,14.64
2022-06-26T02:16:00,mfh,14.65
2022-06-26T02:17:00,mfh,13.93
2022-06-26T02:18:00,mfh,13.73
2022-06-26T02:19:00,mfh,13.78
2022-06-26T02:20:00,mfh,13.80
2022-06-26T02:21:00,mfh,14.42
2022-06-26T02:22:00,mfh,14.46
2022-06-26T02:23:00,mfh,14.46
2022-06-26T02:24:00,mfh,13.84
2022-06-26T02:25:00,mfh,13.83
2022-06-26T02:26:00,mfh,13.70
2022-06-26T02:27:00,mfh,13.25
2022-06-26T02:28:00,mfh,13.33
2022-06-26T02:29:00,mfh,14.34
2022-06-26T02:30:00,mfh,13.95
2022-06-26T02:31:00,mfh,14.39
2022-06-26T02:32:00,mfh,13.64
2022-06-26T02:33:00,mfh,13.64
2022-06-26T02:34:00,mfh,13.49
2022-06-26T02:35:00,mfh,13.56
2022-06-26T02:36:00,mfh,14.07
2022-06-26T02:37:00,mfh,14.06
2022-06-26T02:38:00,mfh,14.10
2022-06-26T02:39:00,mfh,14.06
2022-06-26T02:40:00,mfh,13.33
2022-06-26T02:41:00,mfh,13.15
2022-06-26T02:42:00,mfh,13.12
2022-06-26T02:43:00,mfh,13.80
2022-06-26T02:44:00,mfh,13.58
2022-06-26T02:45:00,mfh,13.77
2022-06-26T02:46:00,mfh,13.83
2022-06-26T02:47:00,mfh,13.85
2022-06-26T02:48:00,mfh,13.91
2022-06-26T02:49:00,mfh,13.21
2022-06-26T02:50:00,mfh,13.22
2022-06-26T02:51:00,mfh,13.12
2022-06-26T02:52:00,mfh,13.12
2022-06-26T02:53:00,mfh,13.71
2022-06-26T02:54:00,mfh,13.74
2022-06-26T02:55:00,mfh,13.78
2022-06-26T02:56:00,mfh,14.09
2022-06-26T02:57:00,mfh,13.49
2022-06-26T02:58:00,mfh,13.47
2022-06-26T02:59:00,mfh,13.52
2022-06-26T03:00:00,mfh,13.52
2022-06-26T03:01:00,mfh,15.01
2022-06-26T03:02:00,mfh,14.23
2022-06-26T03:03:00,mfh,14.14
2022-06-26T03:04:00,mfh,14.09
2022-06-26T03:05:00,mfh,13.25
2022-06-26T03:06:00,mfh,13.24
2022-06-26T03:07:00,mfh,13.16
2022-06-26T03:08:00,mfh,13.16
2022-06-26T03:09:00,mfh,13.77
2022-06-26T03:10:00,mfh,13.83
2022-06-26T03:11:00,mfh,13.91
2022-06-26T03:12:00,mfh,14.86
2022-06-26T03:13:00,mfh,13.18
2022-06-26T03:14:00,mfh,13.12
2022-06-26T03:15:00,mfh,13.10
2022-06-26T03:16:00,mfh,13.29
2022-06-26T03:17:00,mfh,13.69
2022-06-26T03:18:00,mfh,13.97
2022-06-26T03:19:00,mfh,13.94
2022-06-26T03:20:00,mfh,13.95
2022-06-26T03:21:00,mfh,21.60
2022-06-26T03:22:00,mfh,22.55
2022-06-26T03:23:00,mfh,23.17
2022-06-26T03:24:00,mfh,23.39
2022-06-26T03:25:00,mfh,23.96
2022-06-26T03:26:00,mfh,23.98
2022-06-26T03:27:00,mfh,24.34
2022-06-26T03:28:00,mfh,23.81
2022-06-26T03:29:00,mfh,23.12
2022-06-26T03:30:00,mfh,23.09
2022-06-26T03:31:00,mfh,23.05
2022-06-26T03:32:00,mfh,23.03
2022-06-26T03:33:00,mfh,23.67
2022-06-26T03:34:00,mfh,23.83
2022-06-26T03:35:00,mfh,23.78
2022-06-26T03:36:00,mfh,23.70
2022-06-26T03:37:00,mfh,23.10
2022-06-26T03:38:00,mfh,23.04
2022-06-26T03:39:00,mfh,23.17
2022-06-26T03:40:00,mfh,23.08
2022-06-26T03:41:00,mfh,23.69
2022-06-26T03:42:00,mfh,24.17
2022-06-26T03:43:00,mfh,24.58
2022-06-26T03:44:00,mfh,24.69
2022-06-26T03:45:00,mfh,24.14
2022-06-26T03:46:00,mfh,24.14
2022-06-26T03:47:00,mfh,23.30
2022-06-26T03:48:00,mfh,23.37
2022-06-26T03:49:00,mfh,23.98
2022-06-26T03:50:00,mfh,24.01
2022-06-26T03:51:00,mfh,24.01
2022-06-26T03:52:00,mfh,23.85
2022-06-26T03:53:00,mfh,23.62
2022-06-26T03:54:00,mfh,23.19
2022-06-26T03:55:00,mfh,23.35
2022-06-26T03:56:00,mfh,23.15
2022-06-26T03:57:00,mfh,23.78
2022-06-26T03:58:00,mfh,24.36
2022-06-26T03:59:00,mfh,23.92
2022-06-26T04:00:00,mfh,23.87
2022-06-26T04:01:00,mfh,23.15
2022-06-26T04:02:00,mfh,23.11
2022-06-26T04:03:00,mfh,23.15
2022-06-26T04:04:00,mfh,23.23
2022-06-26T04:05:00,mfh,23.78
2022-06-26T04:06:00,mfh,24.08
2022-06-26T04:07:00,mfh,24.04
2022-06-26T04:08:00,mfh,24.03
2022-06-26T04:09:00,mfh,23.29
2022-06-26T04:10:00,mfh,23.29
2022-06-26T04:11:00,mfh,23.32
2022-06-26T04:12:00,mfh,23.33
2022-06-26T04:13:00,mfh,23.86
2022-06-26T04:14:00,mfh,23.85
2022-06-26T04:15:00,mfh,23.89
2022-06-26T04:16:00,mfh,23.77
2022-06-26T04:17:00,mfh,23.12
2022-06-26T04:18:00,mfh,23.12
2022-06-26T04:19:00,mfh,23.10
2022-06-26T04:20:00,mfh,23.09
2022-06-26T04:21:00,mfh,23.66
2022-06-26T04:22:00,mfh,23.66
2022-06-26T04:23:00,mfh,23.69
2022-06-26T04:24:00,mfh,23.77
2022-06-26T04:25:00,mfh,23.08
2022-06-26T04:26:00,mfh,23.07
2022-06-26T04:27:00,mfh,23.07
2022-06-26T04:28:00,mfh,24.05
2022-06-26T04:29:00,mfh,23.14
2022-06-26T04:30:00,mfh,23.93
2022-06-26T04:31:00,mfh,23.93
2022-06-26T04:32:00,mfh,23.95
2022-06-26T04:33:00,mfh,23.89
2022-06-26T04:34:00,mfh,23.18
2022-06-26T04:35:00,mfh,23.22
2022-06-26T04:36:00,mfh,23.33
2022-06-26T04:37:00,mfh,22.99
2022-06-26T04:38:00,mfh,23.64
2022-06-26T04:39:00,mfh,23.66
2022-06-26T04:40:00,mfh,23.53
2022-06-26T04:41:00,mfh,22.78
2022-06-26T04:42:00,mfh,22.73
2022-06-26T04:43:00,mfh,22.55
2022-06-26T04:44:00,mfh,22.55
2022-06-26T04:45:00,mfh,23.26
2022-06-26T04:46:00,mfh,23.15
2022-06-26T04:47:00,mfh,23.24
2022-06-26T04:48:00,mfh,24.30
2022-06-26T04:49:00,mfh,22.92
2022-06-26T04:50:00,mfh,22.64
2022-06-26T04:51:00,mfh,22.63
2022-06-26T04:52:00,mfh,22.96
2022-06-26T04:53:00,mfh,24.37
2022-06-26T04:54:00,mfh,24.60
2022-06-26T04:55:00,mfh,23.90
2022-06-26T04:56:00,mfh,23.90
2022-06-26T04:57:00,mfh,22.67
2022-06-26T04:58:00,mfh,22.66
2022-06-26T04:59:00,mfh,22.86
2022-06-26T05:00:00,mfh,22.98
2022-06-26T05:01:00,mfh,41.68
2022-06-26T05:02:00,mfh,42.77
2022-06-26T05:03:00,mfh,43.14
2022-06-26T05:04:00,mfh,41.88
2022-06-26T05:05:00,mfh,42.04
2022-06-26T05:06:00,mfh,42.02
2022-06-26T05:07:00,mfh,41.52
2022-06-26T05:08:00,mfh,41.31
2022-06-26T05:09:00,mfh,41.46
2022-06-26T05:10:00,mfh,42.11
2022-06-26T05:11:00,mfh,42.16
2022-06-26T05:12:00,mfh,42.69
2022-06-26T05:13:00,mfh,42.28
2022-06-26T05:14:00,mfh,42.27
2022-06-26T05:15:00,mfh,41.72
2022-06-26T05:16:00,mfh,41.07
2022-06-26T05:17:00,mfh,41.18
2022-06-26T05:18:00,mfh,41.32
2022-06-26T05:19:00,mfh,41.89
2022-06-26T05:20:00,mfh,41.93
2022-06-26T05:21:00,mfh,43.01
2022-06-26T05:22:00,mfh,42.01
2022-06-26T05:23:00,mfh,42.15
2022-06-26T05:24:00,mfh,41.48
2022-06-26T05:25:00,mfh,41.41
2022-06-26T05:26:00,mfh,41.51
2022-06-26T05:27:00,mfh,42.04
2022-06-26T05:28:00,mfh,41.91
2022-06-26T05:29:00,mfh,41.81
2022-06-26T05:30:00,mfh,41.79
2022-06-26T05:31:00,mfh,41.85
2022-06-26T05:32:00,mfh,41.87
2022-06-26T05:33:00,mfh,40.85
2022-06-26T05:34:00,mfh,40.86
2022-06-26T05:35:00,mfh,40.22
2022-06-26T05:36:00,mfh,40.82
2022-06-26T05:37:00,mfh,40.82
2022-06-26T05:38:00,mfh,41.02
2022-06-26T05:39:00,mfh,41.04
2022-06-26T05:40:00,mfh,41.04
2022-06-26T05:41:00,mfh,41.14
2022-06-26T05:42:00,mfh,40.73
2022-06-26T05:43:00,mfh,40.64
2022-06-26T05:44:00,mfh,40.50
2022-06-26T05:45:00,mfh,41.17
2022-06-26T05:46:00,mfh,41.23
2022-06-26T05:47:00,mfh,41.17
2022-06-26T05:48:00,mfh,41.15
2022-06-26T05:49:00,mfh,41.13
2022-06-26T05:50:00,mfh,40.49
2022-06-26T05:51:00,mfh,40.42
2022-06-26T05:52:00,mfh,40.23
2022-06-26T05:53:00,mfh,40.85
2022-06-26T05:54:00,mfh,40.92
2022-06-26T05:55:00,mfh,40.79
2022-06-26T05:56:00,mfh,40.75
2022-06-26T05:57:00,mfh,41.22
2022-06-26T05:58:00,mfh,41.12
2022-06-26T05:59:00,mfh,40.24
2022-06-26T06:00:00,mfh,40.19
2022-06-26T06:01:00,mfh,40.37
2022-06-26T06:02:00,mfh,40.98
2022-06-26T06:03:00,mfh,40.83
2022-06-26T06:04:00,mfh,40.88
2022-06-26T06:05:00,mfh,40.19
2022-06-26T06:06:00,mfh,40.45
2022-06-26T06:07:00,mfh,39.65
2022-06-26T06:08:00,mfh,39.54
2022-06-26T06:09:00,mfh,39.47
2022-06-26T06:10:00,mfh,40.64
2022-06-26T06:11:00,mfh,40.11
2022-06-26T06:12:00,mfh,40.12
2022-06-26T06:13:00,mfh,40.94
2022-06-26T06:14:00,mfh,40.21
2022-06-26T06:15:00,mfh,40.23
2022-06-26T06:16:00,mfh,39.23
2022-06-26T06:17:00,mfh,39.16
2022-06-26T06:18:00,mfh,39.33
2022-06-26T06:19:00,mfh,40.11
2022-06-26T06:20:00,mfh,40.10
2022-06-26T06:21:00,mfh,40.06
2022-06-26T06:22:00,mfh,39.96
2022-06-26T06:23:00,mfh,39.99
2022-06-26T06:24:00,mfh,40.95
2022-06-26T06:25:00,mfh,39.34
2022-06-26T06:26:00,mfh,39.40
2022-06-26T06:27:00,mfh,39.31
2022-06-26T06:28:00,mfh,39.95
2022-06-26T06:29:00,mfh,39.88
2022-06-26T06:30:00,mfh,40.22
2022-06-26T06:31:00,mfh,40.20
2022-06-26T06:32:00,mfh,41.10
2022-06-26T06:33:00,mfh,41.13
2022-06-26T06:34:00,mfh,40.79
2022-06-26T06:35:00,mfh,40.86
2022-06-26T06:36:00,mfh,41.38
2022-06-26T06:37:00,mfh,41.91
2022-06-26T06:38:00,mfh,41.45
2022-06-26T06:39:00,mfh,39.58
2022-06-26T06:40:00,mfh,39.73
2022-06-26T06:41:00,mfh,39.00
2022-06-26T06:42:00,mfh,39.20
2022-06-26T06:43:00,mfh,39.27
2022-06-26T06:44:00,mfh,39.22
2022-06-26T06:45:00,mfh,40.47
2022-06-26T06:46:00,mfh,39.75
2022-06-26T06:47:00,mfh,39.73
2022-06-26T06:48:00,mfh,39.70
2022-06-26T06:49:00,mfh,39.72
2022-06-26T06:50:00,mfh,39.07
2022-06-26T06:51:00,mfh,38.96
2022-06-26T06:52:00,mfh,38.93
2022-06-26T06:53:00,mfh,39.76
2022-06-26T06:54:00,mfh,39.86
2022-06-26T06:55:00,mfh,39.79
2022-06-26T06:56:00,mfh,39.76
2022-06-26T06:57:00,mfh,39.66
2022-06-26T06:58:00,mfh,40.15
2022-06-26T06:59:00,mfh,39.05
2022-06-26T07:00:00,mfh,39.00
2022-06-26T07:01:00,mfh,38.99
2022-06-26T07:02:00,mfh,39.71
2022-06-26T07:03:00,mfh,39.58
2022-06-26T07:04:00,mfh,39.63
2022-06-26T07:05:00,mfh,39.59
2022-06-26T07:06:00,mfh,39.67
2022-06-26T07:07:00,mfh,38.92
2022-06-26T07:08:00,mfh,38.89
2022-06-26T07:09:00,mfh,38.91
2022-06-26T07:10:00,mfh,39.45
2022-06-26T07:11:00,mfh,39.89
2022-06-26T07:12:00,mfh,39.27
2022-06-26T07:13:00,mfh,39.21
2022-06-26T07:14:00,mfh,39.20
2022-06-26T07:15:00,mfh,39.20
2022-06-26T07:16:00,mfh,38.52
2022-06-26T07:17:00,mfh,38.75
2022-06-26T07:18:00,mfh,38.89
2022-06-26T07:19:00,mfh,39.46
2022-06-26T07:20:00,mfh,39.44
2022-06-26T07:21:00,mfh,39.41
2022-06-26T07:22:00,mfh,39.48
2022-06-26T07:23:00,mfh,39.55
2022-06-26T07:24:00,mfh,39.45
2022-06-26T07:25:00,mfh,38.92
2022-06-26T07:26:00,mfh,38.85
2022-06-26T07:27:00,mfh,38.55
2022-06-26T07:28:00,mfh,39.13
2022-06-26T07:29:00,mfh,39.19
2022-06-26T07:30:00,mfh,40.01
2022-06-26T07:31:00,mfh,39.94
2022-06-26T07:32:00,mfh,40.03
2022-06-26T07:33:00,mfh,40.07
2022-06-26T07:34:00,mfh,39.22
2022-06-26T07:35:00,mfh,39.37
2022-06-26T07:36:00,mfh,39.18
2022-06-26T07:37:00,mfh,39.82
2022-06-26T07:38:00,mfh,39.86
2022-06-26T07:39:00,mfh,39.76
2022-06-26T07:40:00,mfh,40.14
2022-06-26T07:41:00,mfh,40.32
2022-06-26T07:42:00,mfh,39.80
2022-06-26T07:43:00,mfh,39.63
2022-06-26T07:44:00,mfh,39.62
2022-06-26T07:45:00,mfh,39.91
2022-06-26T07:46:00,mfh,40.34
2022-06-26T07:47:00,mfh,40.83
2022-06-26T07:48:00,mfh,41.16
2022-06-26T07:49:00,mfh,41.33
2022-06-26T07:50:00,mfh,41.38
2022-06-26T07:51:00,mfh,40.56
2022-06-26T07:52:00,mfh,40.51
2022-06-26T07:53:00,mfh,40.59
2022-06-26T07:54:00,mfh,40.71
2022-06-26T07:55:00,mfh,42.17
2022-06-26T07:56:00,mfh,41.19
2022-06-26T07:57:00,mfh,41.27
2022-06-26T07:58:00,mfh,41.17
2022-06-26T07:59:00,mfh,41.19
2022-06-26T08:00:00,mfh,40.42
2022-06-26T08:01:00,mfh,40.30
2022-06-26T08:02:00,mfh,40.26
2022-06-26T08:03:00,mfh,41.02
2022-06-26T08:04:00,mfh,40.89
2022-06-26T08:05:00,mfh,41.12
2022-06-26T08:06:00,mfh,41.37
2022-06-26T08:07:00,mfh,41.20
2022-06-26T08:08:00,mfh,40.83
2022-06-26T08:09:00,mfh,40.45
2022-06-26T08:10:00,mfh,40.41
2022-06-26T08:11:00,mfh,40.31
2022-06-26T08:12:00,mfh,40.43
2022-06-26T08:13:00,mfh,40.08
2022-06-26T08:14:00,mfh,40.85
2022-06-26T08:15:00,mfh,40.84
2022-06-26T08:16:00,mfh,40.68
2022-06-26T08:17:00,mfh,40.01
2022-06-26T08:18:00,mfh,40.15
2022-06-26T08:19:00,mfh,40.21
2022-06-26T08:20:00,mfh,40.21
2022-06-26T08:21:00,mfh,40.77
2022-06-26T08:22:00,mfh,40.76
2022-06-26T08:23:00,mfh,40.80
2022-06-26T08:24:00,mfh,41.50
2022-06-26T08:25:00,mfh,41.46
2022-06-26T08:26:00,mfh,40.78
2022-06-26T08:27:00,mfh,40.84
2022-06-26T08:28:00,mfh,39.84
2022-06-26T08:29:00,mfh,40.48
2022-06-26T08:30:00,mfh,41.28
2022-06-26T08:31:00,mfh,41.06
2022-06-26T08:32:00,mfh,40.26
2022-06-26T08:33:00,mfh,40.19
2022-06-26T08:34:00,mfh,39.43
2022-06-26T08:35:00,mfh,39.46
2022-06-26T08:36:00,mfh,39.36
2022-06-26T08:37:00,mfh,39.62
2022-06-26T08:38:00,mfh,40.13
2022-06-26T08:39:00,mfh,40.10
2022-06-26T08:40:00,mfh,40.13
2022-06-26T08:41:00,mfh,40.08
2022-06-26T08:42:00,mfh,40.09
2022-06-26T08:43:00,mfh,39.55
2022-06-26T08:44:00,mfh,39.40
2022-06-26T08:45:00,mfh,39.63
2022-06-26T08:46:00,mfh,39.54
2022-06-26T08:47:00,mfh,40.39
2022-06-26T08:48:00,mfh,41.30
2022-06-26T08:49:00,mfh,41.43
2022-06-26T08:50:00,mfh,40.25
2022-06-26T08:51:00,mfh,40.24
2022-06-26T08:52:00,mfh,39.99
2022-06-26T08:53:00,mfh,39.66
2022-06-26T08:54:00,mfh,39.76
2022-06-26T08:55:00,mfh,40.49
2022-06-26T08:56:00,mfh,40.51
2022-06-26T08:57:00,mfh,40.68
2022-06-26T08:58:00,mfh,40.69
2022-06-26T08:59:00,mfh,40.91
2022-06-26T09:00:00,mfh,40.81
2022-06-26T09:01:00,mfh,39.51
2022-06-26T09:02:00,mfh,39.84
2022-06-26T09:03:00,mfh,40.11
2022-06-26T09:04:00,mfh,41.35
2022-06-26T09:05:00,mfh,42.16
2022-06-26T09:06:00,mfh,41.92
2022-06-26T09:07:00,mfh,41.94
2022-06-26T09:08:00,mfh,42.20
2022-06-26T09:09:00,mfh,41.83
2022-06-26T09:10:00,mfh,41.35
2022-06-26T09:11:00,mfh,41.67
2022-06-26T09:12:00,mfh,41.74
2022-06-26T09:13:00,mfh,42.30
2022-06-26T09:14:00,mfh,42.43
2022-06-26T09:15:00,mfh,42.49
2022-06-26T09:16:00,mfh,50.14
2022-06-26T09:17:00,mfh,51.73
2022-06-26T09:18:00,mfh,50.54
2022-06-26T09:19:00,mfh,50.48
2022-06-26T09:20:00,mfh,50.20
2022-06-26T09:21:00,mfh,50.52
2022-06-26T09:22:00,mfh,50.47
2022-06-26T09:23:00,mfh,50.42
2022-06-26T09:24:00,mfh,50.23
2022-06-26T09:25:00,mfh,42.19
2022-06-26T09:26:00,mfh,42.26
2022-06-26T09:27:00,mfh,41.52
2022-06-26T09:28:00,mfh,41.46
2022-06-26T09:29:00,mfh,41.77
2022-06-26T09:30:00,mfh,42.40
2022-06-26T09:31:00,mfh,42.26
2022-06-26T09:32:00,mfh,42.15
2022-06-26T09:33:00,mfh,42.18
2022-06-26T09:34:00,mfh,42.38
2022-06-26T09:35:00,mfh,42.49
2022-06-26T09:36:00,mfh,41.93
2022-06-26T09:37:00,mfh,42.49
2022-06-26T09:38:00,mfh,42.48
2022-06-26T09:39:00,mfh,43.13
2022-06-26T09:40:00,mfh,43.36
2022-06-26T09:41:00,mfh,43.38
2022-06-26T09:42:00,mfh,43.37
2022-06-26T09:43:00,mfh,43.75
2022-06-26T09:44:00,mfh,43.04
2022-06-26T09:45:00,mfh,43.33
2022-06-26T09:46:00,mfh,43.02
2022-06-26T09:47:00,mfh,43.68
2022-06-26T09:48:00,mfh,43.99
2022-06-26T09:49:00,mfh,43.50
2022-06-26T09:50:00,mfh,43.86
2022-06-26T09:51:00,mfh,43.86
2022-06-26T09:52:00,mfh,43.62
2022-06-26T09:53:00,mfh,42.98
2022-06-26T09:54:00,mfh,42.99
2022-06-26T09:55:00,mfh,42.67
2022-06-26T09:56:00,mfh,43.98
2022-06-26T09:57:00,mfh,43.00
2022-06-26T09:58:00,mfh,42.52
2022-06-26T09:59:00,mfh,42.56
2022-06-26T10:00:00,mfh,42.49
2022-06-26T10:01:00,mfh,41.35
2022-06-26T10:02:00,mfh,41.27
2022-06-26T10:03:00,mfh,41.97
2022-06-26T10:04:00,mfh,42.66
2022-06-26T10:05:00,mfh,43.20
2022-06-26T10:06:00,mfh,43.54
2022-06-26T10:07:00,mfh,43.08
2022-06-26T10:08:00,mfh,43.23
2022-06-26T10:09:00,mfh,43.32
2022-06-26T10:10:00,mfh,42.54
2022-06-26T10:11:00,mfh,42.38
2022-06-26T10:12:00,mfh,42.45
2022-06-26T10:13:00,mfh,43.73
2022-06-26T10:14:00,mfh,43.09
2022-06-26T10:15:00,mfh,43.21
2022-06-26T10:16:00,mfh,43.65
2022-06-26T10:17:00,mfh,43.30
2022-06-26T10:18:00,mfh,42.65
2022-06-26T10:19:00,mfh,42.38
2022-06-26T10:20:00,mfh,43.30
2022-06-26T10:21:00,mfh,52.44
2022-06-26T10:22:00,mfh,52.75
2022-06-26T10:23:00,mfh,52.86
2022-06-26T10:24:00,mfh,52.83
2022-06-26T10:25:00,mfh,52.55
2022-06-26T10:26:00,mfh,52.56
2022-06-26T10:27:00,mfh,51.75
2022-06-26T10:28:00,mfh,51.83
2022-06-26T10:29:00,mfh,43.57
2022-06-26T10:30:00,mfh,43.84
2022-06-26T10:31:00,mfh,44.51
2022-06-26T10:32:00,mfh,44.39
2022-06-26T10:33:00,mfh,45.22
2022-06-26T10:34:00,mfh,45.04
2022-06-26T10:35:00,mfh,44.23
2022-06-26T10:36:00,mfh,44.11
2022-06-26T10:37:00,mfh,43.87
2022-06-26T10:38:00,mfh,43.64
2022-06-26T10:39:00,mfh,44.09
2022-06-26T10:40:00,mfh,44.36
2022-06-26T10:41:00,mfh,44.33
2022-06-26T10:42:00,mfh,51.74
2022-06-26T10:43:00,mfh,52.41
2022-06-26T10:44:00,mfh,52.04
2022-06-26T10:45:00,mfh,51.91
2022-06-26T10:46:00,mfh,52.34
2022-06-26T10:47:00,mfh,51.59
2022-06-26T10:48:00,mfh,52.10
2022-06-26T10:49:00,mfh,51.65
2022-06-26T10:50:00,mfh,50.30
2022-06-26T10:51:00,mfh,51.31
2022-06-26T10:52:00,mfh,43.70
2022-06-26T10:53:00,mfh,42.68
2022-06-26T10:54:00,mfh,43.58
2022-06-26T10:55:00,mfh,43.82
2022-06-26T10:56:00,mfh,52.67
2022-06-26T10:57:00,mfh,52.66
2022-06-26T10:58:00,mfh,51.99
2022-06-26T10:59:00,mfh,51.98
2022-06-26T11:00:00,mfh,51.78
2022-06-26T11:01:00,mfh,52.25
2022-06-26T11:02:00,mfh,51.76
2022-06-26T11:03:00,mfh,51.49
2022-06-26T11:04:00,mfh,43.64
2022-06-26T11:05:00,mfh,44.03
2022-06-26T11:06:00,mfh,43.83
2022-06-26T11:07:00,mfh,44.10
2022-06-26T11:08:00,mfh,44.33
2022-06-26T11:09:00,mfh,52.94
2022-06-26T11:10:00,mfh,52.53
2022-06-26T11:11:00,mfh,51.74
2022-06-26T11:12:00,mfh,50.31
2022-06-26T11:13:00,mfh,50.09
2022-06-26T11:14:00,mfh,50.33
2022-06-26T11:15:00,mfh,51.13
2022-06-26T11:16:00,mfh,50.48
2022-06-26T11:17:00,mfh,51.61
2022-06-26T11:18:00,mfh,51.23
2022-06-26T11:19:00,mfh,50.25
2022-06-26T11:20:00,mfh,50.38
2022-06-26T11:21:00,mfh,50.13
2022-06-26T11:22:00,mfh,50.17
2022-06-26T11:23:00,mfh,50.85
2022-06-26T11:24:00,mfh,51.01
2022-06-26T11:25:00,mfh,43.67
2022-06-26T11:26:00,mfh,43.84
2022-06-26T11:27:00,mfh,43.66
2022-06-26T11:28:00,mfh,43.04
2022-06-26T11:29:00,mfh,42.86
2022-06-26T11:30:00,mfh,42.94
2022-06-26T11:31:00,mfh,43.54
2022-06-26T11:32:00,mfh,43.59
2022-06-26T11:33:00,mfh,43.73
2022-06-26T11:34:00,mfh,43.82
2022-06-26T11:35:00,mfh,43.58
2022-06-26T11:36:00,mfh,43.74
2022-06-26T11:37:00,mfh,43.51
2022-06-26T11:38:00,mfh,42.93
2022-06-26T11:39:00,mfh,42.98
2022-06-26T11:40:00,mfh,43.78
2022-06-26T11:41:00,mfh,43.51
2022-06-26T11:42:00,mfh,43.25
2022-06-26T11:43:00,mfh,44.19
2022-06-26T11:44:00,mfh,44.59
2022-06-26T11:45:00,mfh,44.00
2022-06-26T11:46:00,mfh,43.80
2022-06-26T11:47:00,mfh,43.67
2022-06-26T11:48:00,mfh,43.86
2022-06-26T11:49:00,mfh,45.33
2022-06-26T11:50:00,mfh,44.31
2022-06-26T11:51:00,mfh,44.56
2022-06-26T11:52:00,mfh,44.36
2022-06-26T11:53:00,mfh,44.75
2022-06-26T11:54:00,mfh,43.74
2022-06-26T11:55:00,mfh,43.88
2022-06-26T11:56:00,mfh,43.48
2022-06-26T11:57:00,mfh,43.31
2022-06-26T11:58:00,mfh,44.60
2022-06-26T11:59:00,mfh,44.53
2022-06-26T12:00:00,mfh,44.19
2022-06-26T12:01:00,mfh,44.66
2022-06-26T12:02:00,mfh,44.31
2022-06-26T12:03:00,mfh,43.38
2022-06-26T12:04:00,mfh,42.64
2022-06-26T12:05:00,mfh,42.66
2022-06-26T12:06:00,mfh,42.92
2022-06-26T12:07:00,mfh,42.67
2022-06-26T12:08:00,mfh,42.73
2022-06-26T12:09:00,mfh,43.28
2022-06-26T12:10:00,mfh,43.59
2022-06-26T12:11:00,mfh,43.89
2022-06-26T12:12:00,mfh,43.89
2022-06-26T12:13:00,mfh,43.69
2022-06-26T12:14:00,mfh,45.35
2022-06-26T12:15:00,mfh,45.60
2022-06-26T12:16:00,mfh,45.47
2022-06-26T12:17:00,mfh,44.94
2022-06-26T12:18:00,mfh,45.12
2022-06-26T12:19:00,mfh,45.92
2022-06-26T12:20:00,mfh,44.46
2022-06-26T12:21:00,mfh,43.93
2022-06-26T12:22:00,mfh,45.20
2022-06-26T12:23:00,mfh,45.53
2022-06-26T12:24:00,mfh,53.46
2022-06-26T12:25:00,mfh,54.70
2022-06-26T12:26:00,mfh,54.82
2022-06-26T12:27:00,mfh,54.64
2022-06-26T12:28:00,mfh,54.69
2022-06-26T12:29:00,mfh,54.14
2022-06-26T12:30:00,mfh,53.90
2022-06-26T12:31:00,mfh,53.72
2022-06-26T12:32:00,mfh,54.11
2022-06-26T12:33:00,mfh,53.95
2022-06-26T12:34:00,mfh,54.03
2022-06-26T12:35:00,mfh,45.86
2022-06-26T12:36:00,mfh,46.53
2022-06-26T12:37:00,mfh,45.49
2022-06-26T12:38:00,mfh,45.53
2022-06-26T12:39:00,mfh,45.97
2022-06-26T12:40:00,mfh,46.59
2022-06-26T12:41:00,mfh,47.00
2022-06-26T12:42:00,mfh,47.32
2022-06-26T12:43:00,mfh,46.76
2022-06-26T12:44:00,mfh,47.74
2022-06-26T12:45:00,mfh,46.67
2022-06-26T12:46:00,mfh,45.89
2022-06-26T12:47:00,mfh,45.76
2022-06-26T12:48:00,mfh,46.06
2022-06-26T12:49:00,mfh,45.54
2022-06-26T12:50:00,mfh,45.46
2022-06-26T12:51:00,mfh,45.80
2022-06-26T12:52:00,mfh,46.41
2022-06-26T12:53:00,mfh,46.53
2022-06-26T12:54:00,mfh,46.10
2022-06-26T12:55:00,mfh,45.05
2022-06-26T12:56:00,mfh,45.04
2022-06-26T12:57:00,mfh,45.10
2022-06-26T12:58:00,mfh,45.81
2022-06-26T12:59:00,mfh,45.76
2022-06-26T13:00:00,mfh,45.87
2022-06-26T13:01:00,mfh,45.94
2022-06-26T13:02:00,mfh,45.54
2022-06-26T13:03:00,mfh,45.08
2022-06-26T13:04:00,mfh,45.08
2022-06-26T13:05:00,mfh,44.87
2022-06-26T13:06:00,mfh,44.81
2022-06-26T13:07:00,mfh,45.17
2022-06-26T13:08:00,mfh,44.79
2022-06-26T13:09:00,mfh,44.75
2022-06-26T13:10:00,mfh,45.04
2022-06-26T13:11:00,mfh,44.21
2022-06-26T13:12:00,mfh,44.13
2022-06-26T13:13:00,mfh,44.10
2022-06-26T13:14:00,mfh,44.12
2022-06-26T13:15:00,mfh,44.67
2022-06-26T13:16:00,mfh,44.58
2022-06-26T13:17:00,mfh,45.53
2022-06-26T13:18:00,mfh,44.51